Home > Weather > Cape Coral > Past weeks

Flag for USA Weather for the Past 2 Weeks in Cape Coral, Florida, USA

Now
78 °F

Overcast.


Feels Like: 80 °F
Forecast: 70 / 86 °F
Wind: 7 mph from Northwest

Location: Page Field

Current Time: Apr 29, 2016 at 1:04:11 AM

Latest Report: Apr 28, 2016 at 11:53 PM


Visibility: 10 mi

Pressure: 30.01 "Hg

Humidity: 69%

Dew Point: 67 °F

Location of Cape CoralLocation

Historic Weather in Cape Coral — Graph

°F

Cape Coral Temperature Yesterday

Maximum temperature yesterday: 89 °F (at 1:53 PM)
Minimum temperature yesterday: 71 °F (at 6:53 AM)
Average temperature yesterday: 79 °F

High & Low Weather Summary for the Past Weeks

 TemperatureHumidityPressure
High90 °F (Apr 24, 3:53 PM)97% (Apr 24, 6:53 AM)30.21 "Hg (Apr 24, 6:53 AM)
Low60 °F (Apr 18, 5:53 AM)29% (Apr 21, 4:53 PM)29.86 "Hg (Apr 27, 5:53 PM)
Average75 °F68%30.01 "Hg
* Reported Apr 13 10:53 PM — Apr 28 10:53 PM, Cape Coral, Weather by CustomWeather, © 2016

Note: Actual official high and low records may vary slightly from our data, if they occured in-between our weather recording intervals... More about our weather records

Advertising

Cape Coral Weather History for the Previous 24 Hours

Scroll right to see more
 ConditionsComfort  
Time TempWeatherWind HumidityBarometerVisibility
10:53 PM
Thu, Apr 28
77 °FPartly cloudy.5 mph74%30.01 "Hg10 mi
9:53 PM78 °FClear.7 mph76%30.00 "Hg10 mi
8:53 PM79 °FSunny.7 mph72%29.99 "Hg10 mi
7:53 PM81 °FPassing clouds.7 mph62%29.97 "Hg10 mi
6:53 PM82 °FSunny.9 mph65%29.95 "Hg10 mi
5:53 PM84 °FSunny.12 mph59%29.94 "Hg10 mi
4:53 PM86 °FPartly sunny.10 mph53%29.94 "Hg10 mi
3:53 PM85 °FBroken clouds.No wind55%29.95 "Hg10 mi
2:53 PM86 °FCloudy.6 mph55%29.97 "Hg10 mi
1:53 PM89 °FScattered clouds.7 mph42%29.98 "Hg10 mi
12:53 PM85 °FScattered clouds.No wind51%29.99 "Hg10 mi
11:53 AM83 °FScattered clouds.No wind57%30.01 "Hg10 mi
10:53 AM82 °FSunny.9 mph58%30.01 "Hg10 mi
9:53 AM80 °FSunny.6 mph67%30.00 "Hg10 mi
8:53 AM76 °FSunny.8 mph77%29.99 "Hg10 mi
7:53 AM73 °FSunny.6 mph84%29.98 "Hg10 mi
6:53 AM71 °FClear.3 mph90%29.96 "Hg10 mi
5:53 AM72 °FClear.5 mph87%29.94 "Hg10 mi
4:53 AM73 °FClear.No wind88%29.94 "Hg10 mi
3:53 AM73 °FMostly cloudy.No wind90%29.95 "Hg10 mi
2:53 AM74 °FOvercast.3 mph88%29.95 "Hg10 mi
1:53 AM75 °FPassing clouds.No wind82%29.95 "Hg10 mi
Weather by CustomWeather, © 2016

See weather overviewHow to use our weather pages